DMSP 5D-2 F13 DEB, 40525

Orbit data source: Space-Track

DMSP 5D-2 F13 DEB, 40525 is space debris in SSO originally from a launch on Fri, 24 Mar 1995 UTC launched from the Air Force Western Test Range (AFWTR). Debris objects in space refer to the collection of defunct objects orbiting the Earth. Examples of debris include non-operational satellites, rocket bodies, and fragments generated from explosions, collisions, or faulty payload assembly.

Loading next visibility...
Identifier
40525, 1995-015DM
Orbit
SSO
Country
Flag of USUS
Related business
Manufacturer
Unknown
Mission
Spacecraft
Bus & Motor
Unknown
Mass
Unknown
Launch date (UTC)
1995-03-24 (31 years ago)
Launch vehicle
Unknown
Launch site
Air Force Western Test Range (AFWTR)
Object type
Payload
Rocket body
Debris
Shape & HBR
Unknown shape, 0.1 m
Radar Cross Section
Small (<0.1 m²)

Expand to show TLE details & history
Last TLE update: 1 day ago

TLE from 1 day ago
0 DMSP 5D-2 F13 DEB
1 40525U 95015DM  25291.06621575  .00008305  00000-0  28214-2 0  9992
2 40525  98.6879 326.1096 0011503 243.9935 116.0067 14.36829703547344
Epoch: 2025-10-18T01:35Z
TLE epoch observation values (Epoch: 2025-10-18T01:35:21.040Z)
Latitude
Longitude
-84.53064°
Altitude
775.544 km
Speed
7.464 km/s
True Right ascension
21h 44m 26s
True Declination
0° 00' 00"
Sunlit
Object was in full shadow at epoch
Visualization orbit readout
Latitude
Unknown
Longitude
Unknown
Altitude
Unknown
Speed
Unknown
Apparent Right ascension
Unknown
Apparent Declination
Unknown
Sunlit
N/A
Visualization observer readout
Local Sidereal Time
06:25:25
Azimuth
Unknown
Elevation
Unknown
Doppler factor
Unknown
Orbital elements
Apogee altitude
774.345 km
Perigee altitude
757.909 km
Semi-major axis
7,144.264 km
Eccentricity
0.00115
Inclination
98.6879°
RAAN
326.1096°
Arg. of periapsis
243.9935°
True anomaly
116.12509°
Mean anomaly
116.0067°
Eccentric anomaly
116.0659°
Mean motion
3.59424 °/min
Orbital period
100.16 mins
BSTAR
0.0028214

Documentation

Showing up to 5 results
|